YAOGAN 3

Last updated on Wed Apr 24 2024 00:02:24 GMT+0000 (Coordinated Universal Time)

1 32289U 07055A 24114.56507364 .00005557 00000+0 66131-3 0 9990 2 32289 97.8919 140.3949 0002006 101.9722 258.1718 14.84764455889161

Satellite not in orbit

YAOGAN 3